Christophe Dupuy

Chief Scout - AC Ajaccio
20 Nov 2027
Saturday
Process

Personality

Adaptability (7) Ambition (19) Controversy (19) Loyalty (1) Pressure (10) Professionalism (2) Sportsmanship (6) Temperament (14)

Profile

Coaching Style Democratic
License Continental C
Determination 4
Man Management 10
Motivating 7
Discipline 3
Job Satisfaction
84%
Fatigue
0%
Role Chief Scout
Wage 74.6K p/w
Contract 14.03.2030

Performance

Behaviour Good
Training Effectiveness
22%
Player Development
35%
Injury Prevention
30%
Tactical Implementation
20%

Recent Events

Assessed a player now
Attended a recruitment meeting now
Recommended a transfer target now
Recommended a transfer target now
Recommended a transfer target now
Assessed a player now
Assessed a player now
Assessed a player 7d ago

Currently Monitoring

90
Player Club Status Ability Confidence Watched Last Observed Latest Vote
Victor Lind Hammarby Active 119 / 115 40% 1 19.11.2027 -
Alex Luna Instituto Active 120 / 150 40% 2 18.11.2027 -
Santiago Sala Güemes Active 100 / 97 40% 1 18.11.2027 -
Emerson Batalla Atletico Bucaramanga Active 120 / 121 40% 2 17.11.2027 -
Luca Langoni New England Revolution Active 124 / 114 40% 2 17.11.2027 -
Carlos Caicedo La Equidad Active 107 / 112 40% 2 16.11.2027 -
Félix Charrupí Atletico Bucaramanga Active 121 / 132 40% 2 15.11.2027 -
Ignacio Schor O'Higgins Active 117 / 141 40% 2 15.11.2027 -
Imran Oulad Omar Dinamo Batumi Active 139 / 117 40% 2 14.11.2027 -
Iñaki Larthirigoyen San Telmo Active 141 / 119 40% 1 14.11.2027 -
Timothy Zechariah Rivers United Active 114 / 105 40% 2 13.11.2027 -
Antonio Galeano Remo Stars Active 122 / 116 40% 2 11.11.2027 -
Yuber Quiñónes Deportivo Pereira Active 131 / 100 40% 1 11.11.2027 -
Cristian Barrios Junior Active 112 / 136 40% 3 10.11.2027 -
Facundo Altamira Godoy Cruz Active 113 / 104 40% 2 09.11.2027 -
Santiago Toloza O'Higgins Active 107 / 141 40% 2 08.11.2027 -
Gonzalo Plata Rosenborg Active 133 / 147 40% 1 08.11.2027 -
Agustín Hausch Caracas Active 125 / 130 40% 1 07.11.2027 -
Adrián Sánchez Junior Active 126 / 133 40% 1 07.11.2027 -
Santiago Sanchez Santa Fe Active 119 / 125 40% 3 06.11.2027 -
Nicolás Benedetti Deportivo Cali Active 129 / 106 40% 4 06.11.2027 -
Youssef Maziz Colorado Rapids Active 110 / 110 40% 2 05.11.2027 -
Lucas Ríos Atlanta Active 112 / 105 40% 1 05.11.2027 -
Edwin Mosquera Santa Fe Active 101 / 136 40% 2 04.11.2027 -
Rick Talleres Active 129 / 130 40% 1 04.11.2027 -
Bryan Castrillón Independiente Medellin Active 104 / 102 40% 3 01.11.2027 -
Jhoao Rodríguez Deportes Quindio Active 122 / 108 40% 2 30.10.2027 -
Juan Peñaloza Alianza Petrolera Active 97 / 124 40% 1 29.10.2027 -
Fabricio Rojas Gimnasia y Tiro Active 121 / 114 40% 1 29.10.2027 -
Vicente Poggi Godoy Cruz Active 140 / 142 40% 1 28.10.2027 -
Augusto Berrondo Tristán Suárez Active 109 / 94 40% 1 28.10.2027 -
Dylan Borrero America de Cali Active 120 / 123 40% 1 25.10.2027 -
Sebastián Moreno Patriotas Active 110 / 92 40% 1 25.10.2027 -
Yhormar Hurtado Atletico Bucaramanga Active 128 / 114 40% 1 22.10.2027 -
Nicolás Fernández Belgrano Active 142 / 108 40% 1 20.10.2027 -
Patrick Preciado Deportivo Pasto Active 93 / 106 40% 2 16.10.2027 -
Julian Angulo Deportes Tolima Active 108 / 125 40% 1 15.10.2027 -
Yílmar Velásquez Santa Fe Active 137 / 120 40% 1 14.10.2027 -
Timo Werner San Jose Earthquakes Active 111 / 133 40% 1 14.10.2027 -
Paul Samson Plateau United Active 94 / 104 40% 2 13.10.2027 -
Edwar López Deportes Tolima Active 139 / 100 40% 2 10.10.2027 -
Patricio Moyano Defensores Active 135 / 118 40% 2 10.10.2027 -
Juan Esteban Ávalo Aguilas Doradas Active 128 / 117 40% 1 09.10.2027 -
Johan Campaña Patriotas Active 96 / 114 40% 1 08.10.2027 -
Kevin Salazar Union Magdalena Active 106 / 91 40% 1 05.10.2027 -
Alou Doumbia Djoliba Active 107 / 101 40% 1 14.09.2027 -
Alejandro Piedrahita Deportivo Pereira Active 126 / 143 40% 1 09.09.2027 -
Denis Bouanga Los Angeles Football Club Active 125 / 126 40% 1 07.09.2027 -
Ilias Chair Queens Park Rangers Active 133 / 127 40% 1 05.07.2027 -
Urko Izeta Cádiz Active 138 / 130 40% 1 05.07.2027 -
Caio Vidal FC Copenhagen Negotiating 128 / 129 63% 1 01.06.2027 Approve
Kelly Saravanan Salford City Active 114 / 121 40% 1 01.06.2027 -
Cameron Archer Southampton Active 139 / 119 40% 1 01.06.2027 -
Kellen Fisher Norwich City Active 127 / 124 40% 1 06.05.2027 -
Brooke Norton-Cuffy Hull City Active 124 / 131 40% 1 06.05.2027 -
Jacob Greaves Ipswich Town Active 138 / 145 40% 2 05.05.2027 -
CJ Egan-Riley Olympique de Marseille Active 133 / 145 40% 1 05.05.2027 -
Jakob Kiilerich Zulte Waregem Active 113 / 119 40% 1 04.05.2027 -
Ethan Galbraith Swansea City Active 132 / 133 40% 2 03.05.2027 -
Antoine Bernard Chamois Niortais Active 135 / 132 40% 1 23.04.2027 -
Florentino Luís Ipswich Town Active 128 / 139 40% 1 23.04.2027 -
Fahem Benaïssa Mantova Active 115 / 114 40% 1 21.04.2027 -
Dylan Ourega Westerlo Active 101 / 129 40% 2 19.04.2027 -
Lilian Raolisoa Angers SCO Active 124 / 125 40% 1 19.04.2027 -
Harry Clarke Preston Active 131 / 114 40% 2 10.04.2027 -
Louis Mouton Angers SCO Active 132 / 133 40% 1 10.04.2027 -
Álex Valle Como Active 130 / 136 40% 1 05.04.2027 -
Aiham Ousou Charleroi Active 135 / 122 40% 1 08.03.2027 -
Rassoul Ndiaye Le Havre AC Active 138 / 127 40% 1 08.03.2027 -
Enrique Lofolomo Zulte Waregem Active 127 / 123 40% 1 07.03.2027 -
Léandre Kuavita Waasland-Beveren Active 114 / 134 40% 1 07.03.2027 -
Zayd El Kandoussi OH Leuven Active 97 / 105 40% 1 05.03.2027 -
James Morris Leyton Orient Active 130 / 122 40% 1 05.03.2027 -
Tim Iroegbunam Hull City Active 125 / 130 40% 1 04.03.2027 -
Jacques Ekomié Wrexham Active 138 / 128 40% 1 04.03.2027 -
Matthew Anderson KV Kortrijk Active 109 / 120 40% 1 02.03.2027 -
Ayumu Seko Le Havre AC Active 116 / 139 40% 1 02.03.2027 -
Tristan Crama Millwall Active 132 / 132 40% 1 01.03.2027 -
Rumarn Burrell Queens Park Rangers Active 120 / 136 40% 1 25.01.2027 -
Mourad Tijuana Active 118 / 106 40% 1 25.01.2027 -
Max Bird Birmingham Active 145 / 121 40% 1 21.01.2027 -
Anton Tanghe Zulte Waregem Active 105 / 118 40% 1 21.01.2027 -
Jules Armand Kooh Dynamo Douala Active 95 / 84 40% 1 12.01.2027 -
Eden Januzaj KV Oostende Active 134 / 129 40% 1 11.01.2027 -
Amar Memić Juventude Active 127 / 128 62% 1 01.01.2027 Approve
Thulani Billiat Utrecht Active 136 / 136 61% 1 01.01.2027 Approve
Nacer Mignolet KV Oostende Lost 131 / 142 40% 1 31.12.2026 -
Ilyes Najim Waasland-Beveren Lost 103 / 103 40% 1 31.12.2026 -
Bénie Traoré New York City Active 131 / 132 40% 1 19.08.2026 -
Moses Simon Paris FC Active 128 / 133 40% 1 01.08.2026 -